Fountain Dale, PA

5:24 AM EST on December 18, 2017 (GMT -0500)
Fountain Dale

Weather History for KRYT - March, 2013

Change the Weather History Date:

Friday, March 1, 2013

  Actual Average (KHGR) Record (KHGR)
Temperature  
Mean Temperature 37 °F -  
Max Temperature 41 °F 44 °F 70 °F (2017)
Min Temperature 33 °F 27 °F 13 °F (2014)
Degree Days  
Heating Degree Days 28    
Moisture  
Dew Point 25 °F    
Average Humidity 62    
Maximum Humidity 76    
Minimum Humidity 49    
Precipitation  
Precipitation 0.00 in - - ()
Sea Level Pressure  
Sea Level Pressure 29.81 in    
Wind  
Wind Speed 5 mph (NW)    
Max Wind Speed 10 mph    
Max Gust Speed 16 mph    
Visibility 10 miles    
Events      
Averages and records for this station are not official NWS values.
T = Trace of Precipitation, MM = Missing Value Source: NWS Daily Summary

Daily Weather History Graph

Daily Weather History Graph

Search for Another Location

Airport or City:

Trip Planner

Search our weather history database for the weather conditions in past years. The results will help you decide how hot, cold, wet, or windy it might be!

Date:

Astronomy

Mar. 01, 2013 Rise Set
Actual Time 6:42 AM EST 6:02 PM EST
Civil Twilight 6:15 AM EST 6:29 PM EST
Nautical Twilight 5:44 AM EST 7:00 PM EST
Astronomical Twilight 5:13 AM EST 7:31 PM EST
Moon 10:32 PM EST (3/1) 8:28 AM EST (3/1)
Length of Visible Light 12h 13m
Length of Day
11h 19m
Waning Gibbous, 83% of the Moon is Illuminated
Mar 1
Waning Gibbous
Mar 4
Last Quarter
Mar 11
New
Mar 19
First Quarter
Mar 27
Full

Hourly Weather History & Observations

Time (EST) Temp. Windchill Dew Point Humidity Pressure Visibility Wind Dir Wind Speed Gust Speed Precip Events Conditions
12:53 AM 37.0 °F 33.3 °F 28.0 °F 70% 29.72 in 10.0 mi Variable 4.6 mph - N/A   Overcast
1:53 AM 37.0 °F 31.6 °F 28.9 °F 73% 29.74 in 10.0 mi Variable 6.9 mph - N/A   Overcast
2:53 AM 36.0 °F 32.1 °F 28.9 °F 76% 29.74 in 10.0 mi Variable 4.6 mph - N/A   Overcast
3:53 AM 36.0 °F 32.1 °F 28.9 °F 76% 29.75 in 10.0 mi Variable 4.6 mph - N/A   Overcast
4:53 AM 36.0 °F 33.3 °F 28.0 °F 73% 29.75 in 10.0 mi Variable 3.5 mph - N/A   Overcast
5:53 AM 36.0 °F 31.1 °F 28.0 °F 73% 29.76 in 10.0 mi Variable 5.8 mph - N/A   Overcast
6:53 AM 36.0 °F 33.3 °F 27.0 °F 70% 29.77 in 10.0 mi Variable 3.5 mph - N/A   Overcast
7:53 AM 37.0 °F 33.3 °F 27.0 °F 67% 29.80 in 10.0 mi Variable 4.6 mph - N/A   Overcast
8:53 AM 37.0 °F 32.4 °F 27.0 °F 67% 29.82 in 10.0 mi Variable 5.8 mph - N/A   Overcast
9:53 AM 37.9 °F 32.7 °F 26.1 °F 62% 29.82 in 10.0 mi NNW 6.9 mph - N/A   Overcast
10:53 AM 39.0 °F 33.4 °F 25.0 °F 57% 29.81 in 10.0 mi WNW 8.1 mph - N/A   Overcast
11:53 AM 39.9 °F 34.5 °F 26.1 °F 58% 29.81 in 10.0 mi West 8.1 mph - N/A   Overcast
12:53 PM 41.0 °F 34.7 °F 23.0 °F 49% 29.80 in 10.0 mi West 10.4 mph 16.1 mph N/A   Overcast
1:53 PM 39.9 °F 35.8 °F 24.1 °F 53% 29.79 in 10.0 mi Variable 5.8 mph 16.1 mph N/A   Overcast
2:53 PM 39.9 °F 35.1 °F 23.0 °F 51% 29.80 in 10.0 mi Variable 6.9 mph - N/A   Overcast
3:53 PM 39.9 °F 34.5 °F 24.1 °F 53% 29.80 in 10.0 mi North 8.1 mph - N/A   Overcast
4:53 PM 37.9 °F - 24.1 °F 57% 29.82 in 10.0 mi Calm Calm - N/A   Overcast
5:53 PM 37.0 °F 33.3 °F 23.0 °F 57% 29.84 in 10.0 mi Variable 4.6 mph - N/A   Overcast
6:53 PM 36.0 °F 33.3 °F 21.9 °F 57% 29.86 in 10.0 mi Variable 3.5 mph - N/A   Overcast
7:53 PM 35.1 °F 32.2 °F 19.9 °F 54% 29.86 in 10.0 mi Variable 3.5 mph - N/A   Clear
8:53 PM 35.1 °F 32.2 °F 21.0 °F 57% 29.88 in 10.0 mi Variable 3.5 mph - N/A   Overcast
9:53 PM 34.0 °F 28.0 °F 21.0 °F 59% 29.89 in 10.0 mi Variable 6.9 mph - N/A   Overcast
10:53 PM 33.1 °F 28.7 °F 19.9 °F 59% 29.88 in 10.0 mi Variable 4.6 mph - N/A   Overcast
11:53 PM 33.1 °F 27.7 °F 19.9 °F 59% 29.87 in 10.0 mi Variable 5.8 mph - N/A   Mostly Cloudy